CARTOSAT-2A

Last updated on Sun Apr 12 2026 00:02:34 GMT+0000 (Coordinated Universal Time)

1 32783U 08021A 26101.55072767 .00000476 00000+0 70899-4 0 9996 2 32783 97.7709 152.5145 0011165 335.2651 24.8024 14.79158741968950
UTC large
Height (km)
Speed (km/s)
/
Latitude / Longitude
Inclination (degrees)
Orbital Period (minutes)
Azimuth
Elevation
Range (km)
Doppler Factor

Next 0 passes for location: London (51.5072 / 0.1276)

Sorry there are no passes over London.